{"data":{"norad_id":61673,"intl_designator":"2024-193N","name":"STARLINK-32417","alt_names":[],"object_type":"PAYLOAD","status":"ACTIVE","operator":null,"country":"US","launch_date":"2024-10-26","launch_site_code":"AFETR","launch_vehicle":null,"mission":null,"orbit_class":"UNKNOWN","rcs_meters":null,"size_class":null,"mass_kg":null,"dimensions":null,"purposes":["comms"],"wikipedia_slug":null,"has_3d_model":false,"image_url":null,"decayed_at":null,"tle_current":{"epoch":"2026-05-25T03:19:33.007008Z","epoch_age_seconds":59545,"freshness":"FRESH","line1":"1 61673U 24193N   26145.13857647 -.00000119  00000+0  81122-5 0  9991","line2":"2 61673  53.1603  95.7413 0001191  82.6580 277.4556 15.30204127 88235","mean_motion":15.30204127,"eccentricity":0.0001191,"inclination_deg":53.1603,"raan_deg":95.7413,"arg_perigee_deg":82.658,"mean_anomaly_deg":277.4556,"bstar":8.1122e-6,"rev_number":8823,"period_min":94.105091901899,"perigee_km":474.38651420505,"apogee_km":476.01897973278,"semimajor_km":6853.3397469689,"source":"CELESTRAK","updated_at":"2026-05-25T13:38:19.435572Z"}}}